[[{"header":{"parameterUnit":"m.s-1","parameterCategory":1,"la1":30.2991,"la2":30.254,"lo1":-89.0895,"lo2":-89.0444,"dy":0.0017,"dx":0.0017,"nx":28,"ny":28,"refTime":"2024-03-21T09:00:00:Z","depth":0,"parameterNumber":2,"parameterNumberName":"U-component_of_WINDS"},"data":[0,0,0,0,0,0,0,0,0,0,0,0,0,0,0,0,0,0,0,0,0,0,0,0,0,0,0,0,0,0,0,0,0,0,0,0,0,0,0,0,0,0,0,0,0,0,0,0,0,0,0,0,0,0,0,0,0,0,5.1685,5.1686,0,5.1775,5.1776,5.1777,5.1702,5.1699,5.1696,5.1693,5.1783,5.1788,5.1794,0,0,0,0,0,0,0,0,0,0,0,0,0,5.1449,5.1454,5.1685,5.1686,5.1688,5.1775,5.1776,5.1778,5.1703,5.1699,5.1695,5.1691,5.1781,5.1788,5.1794,0,0,0,0,0,0,0,0,0,0,0,0,0,5.1547,5.1455,5.1685,5.1661,5.1659,5.1775,5.1776,5.1778,5.1703,5.1699,5.1694,5.1689,5.1779,5.1787,5.1795,5.1939,0,0,5.1819,5.1823,0,0,0,0,0,0,0,0,5.1541,5.1555,5.1663,5.1663,5.1661,5.1723,5.1726,5.1832,5.1704,5.1687,5.1693,5.1687,5.1767,5.1775,5.1803,5.1943,5.1947,5.182,5.1825,5.1828,5.1831,0,0,0,0,0,0,0,5.1534,5.1551,5.1721,5.1665,5.1664,5.1645,5.1654,5.1746,5.1752,5.1688,5.1683,5.1694,5.1765,5.1795,5.1804,5.1948,5.182,5.1827,5.1832,5.1835,5.2213,5.2218,0,0,0,0,0,0,5.153,5.1546,5.1718,5.1723,5.1588,5.1653,5.1663,5.1708,5.1751,5.1753,5.1698,5.169,5.1784,5.1795,5.1807,5.198,5.1828,5.1836,5.1841,5.2208,5.2214,5.222,0,0,0,0,0,0,5.1525,5.1546,5.1714,5.1633,5.1653,5.1663,5.1713,5.1712,5.1742,5.1759,5.1759,5.1728,5.178,5.1796,5.1907,5.1982,5.184,5.1847,5.2202,5.221,5.2217,5.2326,0,0,0,0,0,0,5.1519,5.1545,5.16,5.1635,5.1658,5.1813,5.1718,5.1717,5.1756,5.1747,5.1786,5.1788,5.1778,5.1896,5.1915,5.199,5.1853,5.2195,5.2205,5.2215,5.2315,5.2336,5.2354,0,0,0,0,0,5.1511,5.1626,5.1603,5.1624,5.1726,5.1818,5.1831,5.1817,5.1762,5.1817,5.1829,5.1787,5.197,5.1908,5.1929,5.2008,5.219,5.2202,5.2214,5.2307,5.2332,5.2353,0,0,0,0,0,0,5.1597,5.163,5.1605,5.1734,5.1774,5.1805,5.1874,5.1844,5.1899,5.1888,5.1868,5.1878,5.1996,5.2012,5.1942,5.215,5.2072,5.2088,5.2135,5.2159,5.2178,5.2172,5.186,0,0,0,0,0,5.1632,5.1704,5.1728,5.184,5.1861,5.1865,5.1904,5.189,5.193,5.1946,5.1965,5.2005,5.2072,5.2116,5.2178,5.2317,5.2326,5.2382,5.2401,5.2417,5.2432,5.2508,5.2534,5.2259,5.2259,5.2258,0,0,5.1703,5.173,5.1776,5.1858,5.1887,5.1962,5.1879,5.1961,5.2017,5.1958,5.2065,5.2081,5.2124,5.2251,5.2307,5.2269,5.251,5.2432,5.2445,5.2451,5.2523,5.2549,5.2573,5.2267,5.2265,5.2264,0,0,5.1872,5.1899,5.1997,5.2028,5.2073,5.2075,5.2099,5.2135,5.2144,5.2251,5.2209,5.2275,5.2389,5.2423,5.2455,5.2639,5.2604,5.266,5.2761,5.2836,5.2858,5.2877,5.2944,5.2968,5.2674,5.2675,5.2675,0,5.1955,5.2067,5.205,5.2137,5.2175,5.2126,5.2225,5.2256,5.232,5.2347,5.2303,5.2448,5.2473,5.2608,5.2653,5.268,5.2707,5.2655,5.2856,5.2875,5.2892,5.2956,5.2981,5.2681,5.2681,5.268,5.2679,0,5.2167,5.2246,5.2319,5.2383,5.2429,5.2521,5.2519,5.2568,5.2551,5.2557,5.2668,5.2698,5.2766,5.2797,5.278,5.293,5.2904,5.2859,5.2779,5.2926,5.2985,5.301,5.2691,5.2689,5.2687,5.2685,0,0,5.2393,5.2448,5.2475,5.2505,5.2552,5.2613,5.2703,5.2771,5.2814,5.286,5.2936,5.3035,5.2994,5.303,5.3017,5.3083,5.3229,5.3029,5.3029,5.3066,5.3398,5.3433,5.3461,5.3206,5.321,5.3214,5.3394,0,5.2565,5.2723,5.2712,5.2861,5.2934,5.289,5.297,5.3008,5.3017,5.308,5.3089,5.3161,5.31,5.3122,5.3185,5.3198,5.3295,5.3184,5.3277,5.328,5.3268,5.3492,5.3529,5.3698,5.3417,5.3421,5.3424,0,5.2786,5.2842,5.2999,5.3038,5.3068,5.3139,5.3202,5.3262,5.3305,5.3307,5.335,5.3326,5.3418,5.3337,5.3464,5.3389,5.3426,5.3438,5.3444,5.3452,5.3361,5.3508,5.3751,5.3777,5.346,5.3458,5.3455,0,5.2937,5.305,5.316,5.3186,5.3233,5.3285,5.3307,5.3345,5.3387,5.3442,5.3469,5.3533,5.3569,5.3619,5.3613,5.3554,5.3743,5.3661,5.3748,5.3748,5.379,5.3787,5.4044,5.3813,5.3812,5.3812,5.3811,0,5.3131,5.3229,5.3228,5.3296,5.3405,5.3391,5.35,5.3516,5.3551,5.3621,5.3586,5.3652,5.364,5.3707,5.3703,5.381,5.3826,5.383,5.3828,5.3834,5.3834,5.3858,5.3847,5.3819,5.3817,5.3816,5.3815,0,5.3317,5.332,5.3437,5.3473,5.3485,5.3564,5.3595,5.3659,5.3665,5.3755,5.3775,5.3785,5.3862,5.3862,5.3948,5.3946,5.4077,5.4061,5.4063,5.406,5.4148,5.414,5.443,5.4467,5.4211,5.4213,5.4216,0,5.3441,5.3516,5.3561,5.3606,5.3632,5.3704,5.3748,5.3738,5.3784,5.384,5.3898,5.3971,5.403,5.4154,5.417,5.4237,5.4222,5.4319,5.4232,5.4236,5.4225,5.4221,5.4229,5.4336,5.4339,5.4342,5.4344,0,5.3661,5.366,5.3724,5.379,5.3843,5.3894,5.3941,5.398,5.3975,5.4029,5.4108,5.4154,5.4244,5.4318,5.4383,5.4405,5.4375,5.4371,5.4395,5.4402,5.4401,5.4404,5.4111,5.4364,5.4362,5.4361,5.436,5.4359,5.3821,5.3886,5.3929,5.4002,5.4037,5.4082,5.4145,5.416,5.4226,5.4299,5.4289,5.4377,5.4419,5.4504,5.4532,5.4601,5.4567,5.4601,5.461,5.4619,5.4629,5.439,5.4612,5.4612,5.4611,5.4611,5.461,0,5.4041,5.4066,5.4134,5.4202,5.426,5.4227,5.4278,5.4328,5.4407,5.4449,5.4508,5.4599,5.4671,5.4693,5.4763,5.4814,5.4802,5.4833,5.4829,5.4835,5.4655,5.4628,5.4841,5.4841,5.4841,5.4841,5.4841,5.4841,5.4162,5.4271,5.4275,5.4402,5.4426,5.4513,5.4545,5.4587,5.4621,5.4725,5.4785,5.4799,5.4834,5.4906,5.4971,5.4975,5.5003,5.504,5.5039,5.4871,5.4847,5.4825,5.48,5.5046,5.5046,5.5213,5.5215,5.5216]},{"header":{"parameterUnit":"m.s-1","parameterCategory":1,"la1":30.2991,"la2":30.254,"lo1":-89.0895,"lo2":-89.0444,"dy":0.0017,"dx":0.0017,"nx":28,"ny":28,"refTime":"2024-03-21T09:00:00:Z","depth":0,"parameterNumber":3,"parameterNumberName":"V-component_of_WINDS"},"data":[0,0,0,0,0,0,0,0,0,0,0,0,0,0,0,0,0,0,0,0,0,0,0,0,0,0,0,0,0,0,0,0,0,0,0,0,0,0,0,0,0,0,0,0,0,0,0,0,0,0,0,0,0,0,0,0,0,0,-3.1551,-3.1552,0,-3.1576,-3.1576,-3.1576,-3.1531,-3.1529,-3.1528,-3.1526,-3.155,-3.1552,-3.1554,0,0,0,0,0,0,0,0,0,0,0,0,0,-3.1465,-3.1467,-3.1551,-3.1552,-3.1552,-3.1576,-3.1576,-3.1576,-3.1531,-3.1529,-3.1527,-3.1525,-3.1549,-3.1552,-3.1554,0,0,0,0,0,0,0,0,0,0,0,0,0,-3.1497,-3.1468,-3.1551,-3.1532,-3.1531,-3.1576,-3.1576,-3.1576,-3.1531,-3.1529,-3.1527,-3.1525,-3.1548,-3.1551,-3.1554,-3.1619,0,0,-3.1564,-3.1565,0,0,0,0,0,0,0,0,-3.1496,-3.1501,-3.1535,-3.1534,-3.1532,-3.1548,-3.1554,-3.159,-3.1532,-3.1531,-3.1526,-3.1523,-3.1551,-3.1554,-3.1563,-3.162,-3.1621,-3.1564,-3.1566,-3.1567,-3.1568,0,0,0,0,0,0,0,-3.1493,-3.1499,-3.1561,-3.1535,-3.1534,-3.1522,-3.1524,-3.1561,-3.1553,-3.1531,-3.1528,-3.1531,-3.155,-3.156,-3.1563,-3.1621,-3.1564,-3.1567,-3.1568,-3.157,-3.1733,-3.1735,0,0,0,0,0,0,-3.1494,-3.1498,-3.156,-3.1562,-3.1508,-3.1526,-3.1528,-3.1545,-3.1553,-3.1552,-3.1533,-3.1529,-3.1556,-3.156,-3.1564,-3.1641,-3.1567,-3.157,-3.1572,-3.173,-3.1733,-3.1736,0,0,0,0,0,0,-3.1492,-3.15,-3.1559,-3.1529,-3.1536,-3.153,-3.1549,-3.1547,-3.1557,-3.1554,-3.1553,-3.1545,-3.1554,-3.156,-3.1606,-3.1641,-3.1571,-3.1574,-3.1727,-3.1731,-3.1735,-3.1794,0,0,0,0,0,0,-3.149,-3.1499,-3.1524,-3.153,-3.1537,-3.1601,-3.1551,-3.1549,-3.1563,-3.1558,-3.1566,-3.1565,-3.1553,-3.1601,-3.1609,-3.1644,-3.1577,-3.1724,-3.1729,-3.1733,-3.1789,-3.1799,-3.1808,0,0,0,0,0,-3.1487,-3.1539,-3.1525,-3.1533,-3.1568,-3.1603,-3.1607,-3.1593,-3.1566,-3.159,-3.1589,-3.1564,-3.1636,-3.1606,-3.1614,-3.1651,-3.1722,-3.1728,-3.1733,-3.1784,-3.1797,-3.1808,0,0,0,0,0,0,-3.1537,-3.1539,-3.1524,-3.158,-3.1592,-3.1595,-3.1625,-3.1607,-3.1626,-3.1621,-3.1602,-3.1604,-3.1654,-3.1657,-3.1624,-3.1714,-3.1674,-3.1682,-3.171,-3.1722,-3.1732,-3.173,-3.1579,0,0,0,0,0,-3.1554,-3.1583,-3.1583,-3.1632,-3.1639,-3.1632,-3.1646,-3.1635,-3.1646,-3.165,-3.1652,-3.1664,-3.1689,-3.1706,-3.1728,-3.1789,-3.179,-3.1818,-3.1827,-3.1835,-3.1842,-3.1875,-3.1888,-3.1754,-3.1754,-3.1754,0,0,-3.159,-3.1596,-3.1614,-3.1643,-3.165,-3.168,-3.1636,-3.1669,-3.1691,-3.1655,-3.1699,-3.1701,-3.1713,-3.1767,-3.179,-3.177,-3.1879,-3.1843,-3.1849,-3.1851,-3.1882,-3.1895,-3.1906,-3.1758,-3.1758,-3.1757,0,0,-3.1672,-3.1679,-3.1721,-3.173,-3.1742,-3.1737,-3.1747,-3.1754,-3.1754,-3.1798,-3.1772,-3.1798,-3.1841,-3.1851,-3.1862,-3.1948,-3.1927,-3.1956,-3.2007,-3.2039,-3.205,-3.2059,-3.2091,-3.2103,-3.1963,-3.1963,-3.1963,0,-3.1716,-3.176,-3.1745,-3.178,-3.1794,-3.1763,-3.1806,-3.1815,-3.1834,-3.1844,-3.1822,-3.1876,-3.1882,-3.1938,-3.196,-3.1969,-3.198,-3.1955,-3.205,-3.2059,-3.2067,-3.2097,-3.2109,-3.1967,-3.1966,-3.1966,-3.1966,0,-3.1814,-3.1845,-3.1877,-3.1898,-3.1915,-3.1954,-3.1944,-3.1963,-3.195,-3.1948,-3.1993,-3.1999,-3.2023,-3.2035,-3.2023,-3.209,-3.2078,-3.2053,-3.2012,-3.2084,-3.2112,-3.2123,-3.1972,-3.197,-3.1969,-3.1968,0,0,-3.1927,-3.1939,-3.1951,-3.1961,-3.1973,-3.1997,-3.2034,-3.2058,-3.2076,-3.209,-3.2122,-3.216,-3.2137,-3.2149,-3.2137,-3.2166,-3.2236,-3.2138,-3.2138,-3.2156,-3.2311,-3.2331,-3.2344,-3.2221,-3.2224,-3.2225,-3.2311,0,-3.2009,-3.2075,-3.2062,-3.2126,-3.2156,-3.2127,-3.216,-3.2171,-3.217,-3.2195,-3.2193,-3.222,-3.2188,-3.2195,-3.2222,-3.2221,-3.2267,-3.2215,-3.2251,-3.2252,-3.225,-3.2359,-3.2379,-3.2459,-3.2321,-3.2323,-3.2325,0,-3.2113,-3.2133,-3.22,-3.2209,-3.222,-3.225,-3.2272,-3.2296,-3.2308,-3.2305,-3.2319,-3.2302,-3.234,-3.2299,-3.2352,-3.2317,-3.2331,-3.2333,-3.2335,-3.2339,-3.2293,-3.2366,-3.2484,-3.2497,-3.2342,-3.234,-3.2339,0,-3.219,-3.2233,-3.2279,-3.2288,-3.2299,-3.2321,-3.2326,-3.2336,-3.2352,-3.2371,-3.2381,-3.2403,-3.2416,-3.2434,-3.2424,-3.2395,-3.2479,-3.2437,-3.2478,-3.2478,-3.2497,-3.2496,-3.262,-3.2505,-3.2505,-3.2504,-3.2504,0,-3.2284,-3.2326,-3.2314,-3.2343,-3.239,-3.2375,-3.2422,-3.2424,-3.2433,-3.2462,-3.2438,-3.2466,-3.245,-3.2476,-3.2469,-3.2514,-3.2519,-3.2518,-3.2516,-3.2521,-3.2521,-3.253,-3.2524,-3.2508,-3.2507,-3.2506,-3.2506,0,-3.2378,-3.2372,-3.242,-3.2427,-3.243,-3.2464,-3.247,-3.2496,-3.2493,-3.253,-3.2537,-3.2533,-3.2563,-3.2554,-3.2586,-3.2581,-3.2638,-3.2628,-3.2634,-3.2632,-3.2674,-3.2671,-3.2809,-3.2827,-3.2699,-3.27,-3.2701,0,-3.2438,-3.247,-3.2481,-3.2499,-3.2506,-3.2535,-3.2551,-3.2538,-3.2555,-3.2572,-3.2597,-3.2625,-3.2646,-3.2695,-3.2695,-3.2719,-3.271,-3.2757,-3.2713,-3.2718,-3.2712,-3.271,-3.2714,-3.2766,-3.2767,-3.2768,-3.2769,0,-3.2546,-3.2542,-3.2566,-3.259,-3.261,-3.2628,-3.2644,-3.266,-3.2648,-3.2669,-3.2699,-3.2716,-3.2749,-3.2777,-3.28,-3.2805,-3.2786,-3.2783,-3.2794,-3.28,-3.2802,-3.2803,-3.2659,-3.278,-3.2779,-3.2778,-3.2777,-3.2777,-3.2626,-3.2654,-3.2666,-3.2694,-3.2705,-3.272,-3.2746,-3.2747,-3.2772,-3.2798,-3.2789,-3.2824,-3.2836,-3.2864,-3.2873,-3.29,-3.2882,-3.2898,-3.2902,-3.2906,-3.2912,-3.2798,-3.2904,-3.2904,-3.2903,-3.2903,-3.2903,0,-3.2733,-3.274,-3.2766,-3.2789,-3.2812,-3.2792,-3.2809,-3.2829,-3.286,-3.2873,-3.2895,-3.293,-3.2958,-3.296,-3.2985,-3.3007,-3.2999,-3.3014,-3.3013,-3.3015,-3.2926,-3.2914,-3.302,-3.302,-3.302,-3.302,-3.302,-3.302,-3.2792,-3.2838,-3.2836,-3.2887,-3.2893,-3.2928,-3.2939,-3.2954,-3.2964,-3.3005,-3.3028,-3.3029,-3.3038,-3.3064,-3.3089,-3.3088,-3.3099,-3.3119,-3.3115,-3.3032,-3.3021,-3.301,-3.2999,-3.3121,-3.3121,-3.3202,-3.3202,-3.3203]}]]